sat.trackr.live / text

‹ back to catalog

STARLINK-31252

NORAD 59083 · 2024-041K

PAYLOAD ACTIVE UNKNOWN

§ Identity

Operator
Country
US
Launch date
2024-02-29
Launch site
AFETR
Launch vehicle
Mass (kg)
RCS (m²)

Purposes: comms

External: N2YO · Heavens-Above · Gunter

§ Orbital elements

Epoch: 2026-09-20T04:56:40.725024Z

Period
94.27 min
Inclination
43.0007°
Eccentricity
0.0001039
Mean motion
15.27579908 rev/d
Perigee alt
482.3 km
Apogee alt
483.8 km
Semi-major
6,861.2 km
B*
2.7142e-5
RAAN
208.9906°
Arg perigee
267.0634°
Mean anomaly
93.0099°
Rev number
14,502

§ Raw data

STARLINK-312521 59083U 24041K   26263.20602691  .00000485  00000+0  27142-4 0  99972 59083  43.0007 208.9906 0001039 267.0634  93.0099 15.27579908145021

JSON: /api/v1/satellites/59083 · /tle

For live sub-satellite position, see the globe view (requires WebGL).

§ Visibility from observer

Set your observer location to see the next 7 days of passes ≥ 10°. The values pass through the URL so the page stays shareable.

No JS? Fill the form by hand. The geolocation button needs JavaScript.